Flag for Kazakhstan Weather past 2 weeks in Qyzylorda, Kazakhstan

Now
68 °F

Broken clouds.


Feels Like: 68 °F
Forecast: 52 / 63 °F
Wind: 6 mph from Northeast

Location: Kzyl-Orda

Current Time: Apr 25, 2015 at 10:52:37 AM

Latest Report: Apr 25, 2015 at 10:30 AM


Visibility: N/A

Pressure: 29.83 "Hg

Humidity: 33%

Dew point: 37 °F

Location of QyzylordaLocation

Historic Weather in Qyzylorda — Graph

°F

Qyzylorda temperature yesterday

Maximum temperature yesterday: 75 °F (at 4:00 PM)
Minimum temperature yesterday: 55 °F (at 4:00 AM)
Average temperature yesterday: 65 °F

Past Weeks' High & Low Weather Summary

 TemperatureHumidityPressure
High91 °F (Apr 22, 3:30 PM)100% (Apr 18, 3:00 AM)30.21 "Hg (Apr 18, 3:00 AM)
Low36 °F (Apr 18, 6:30 AM)9% (Apr 11, 3:30 PM)29.62 "Hg (Apr 22, 11:00 PM)
Average64 °F46%29.93 "Hg
* Reported Apr 10 9:00 AM — Apr 25 9:30 AM, Qyzylorda, Weather by CustomWeather, © 2015

Note: Actual official high and low records may vary slightly from our data, if they occured in-between our weather recording intervals... More about our weather records

Advertising

Qyzylorda weather history for previous 24 hours

 ConditionsComfort  
Time TempWeatherWind HumidityBarometerVisibility
9:30 AM
Sat, Apr 25
63 °FBroken clouds.6 mph42%29.86 "HgN/A
9:00 AM59 °FBroken clouds.10 mph48%29.86 "HgN/A
8:30 AM59 °FSunny.3 mph45%29.89 "Hg10 mi
8:00 AM57 °FSunny.8 mph48%29.89 "Hg10 mi
7:30 AM57 °FClear.6 mph48%29.89 "Hg10 mi
7:00 AM57 °FClear.6 mph44%29.89 "Hg10 mi
6:30 AM57 °FClear.6 mph44%29.89 "Hg10 mi
6:00 AM57 °FClear.6 mph41%29.92 "Hg10 mi
5:30 AM57 °FClear.6 mph41%29.92 "Hg10 mi
5:00 AM59 °FClear.6 mph36%29.95 "Hg10 mi
4:00 AM59 °FClear.6 mph34%29.95 "Hg10 mi
3:00 AM59 °FClear.3 mph34%29.98 "Hg10 mi
2:00 AM61 °FClear.3 mph29%30.01 "Hg10 mi
1:00 AM61 °FClear.8 mph29%29.98 "Hg10 mi
12:00 AM61 °FClear.6 mph34%30.01 "Hg10 mi
11:00 PM
Fri, Apr 24
61 °FClear.6 mph34%30.01 "Hg10 mi
10:00 PM64 °FClear.6 mph30%30.04 "Hg10 mi
9:00 PM68 °FSunny.No wind26%30.04 "Hg10 mi
8:00 PM73 °FSunny.No wind20%30.04 "Hg10 mi
7:30 PM73 °FSunny.No wind20%30.04 "Hg10 mi
7:00 PM73 °FPassing clouds.3 mph20%30.01 "HgN/A
6:30 PM73 °FPassing clouds.3 mph20%30.01 "HgN/A
6:00 PM73 °FSunny.No wind20%30.04 "Hg10 mi
5:30 PM73 °FSunny.1 mph20%30.04 "Hg10 mi
5:00 PM73 °FSunny.No wind20%30.04 "Hg10 mi
4:30 PM75 °FSunny.No wind19%30.04 "Hg10 mi
4:00 PM75 °FPassing clouds.3 mph19%30.07 "HgN/A
3:30 PM73 °FSunny.No wind20%30.07 "Hg10 mi
3:00 PM73 °FPassing clouds.3 mph22%30.07 "HgN/A
2:30 PM73 °FPassing clouds.3 mph22%30.07 "HgN/A
2:00 PM72 °FPassing clouds.3 mph22%30.07 "HgN/A
1:30 PM72 °FSunny.1 mph23%30.09 "Hg10 mi
1:00 PM70 °FPassing clouds.6 mph25%30.09 "HgN/A
12:30 PM70 °FSunny.8 mph25%30.09 "Hg10 mi
12:00 PM68 °FSunny.8 mph28%30.09 "Hg10 mi
11:30 AM68 °FPassing clouds.8 mph28%30.09 "HgN/A
11:00 AM66 °FSunny.10 mph35%30.07 "Hg10 mi
10:30 AM66 °FSunny.10 mph32%30.07 "Hg10 mi
10:00 AM63 °FSunny.15 mph45%30.07 "Hg10 mi
Weather by CustomWeather, © 2015

See weather overviewHow to use our weather pages